Location: Unspecified
(47.5840°N, 122.3000°W)
Time: 06:46:47
(UTC+00:00)

SJ-11-01 - Pass Details

Date: 09 December 2025
Orbit: 674 x 690 km, 98.0° (Epoch: 13 January)

Event Time Altitude Azimuth Distance (km) Brightness Sun altitude
Rises 13:13:06 0° 12° (NNE) 3,073 7.7 -24.7°
Reaches altitude 10° 13:15:22 10° 10° (N) 2,151 6.8 -24.3°
Maximum altitude 13:20:04 75° 287° (WNW) 717 4.1 -23.5°
Enters shadow 13:22:03 34° 208° (SSW) 1,116 5.1 -23.2°
Exits shadow 13:23:39 17° 203° (SSW) 1,702 6.1 -22.9°
Drops below altitude 10° 13:24:42 10° 202° (SSW) 2,125 6.7 -22.8°
Sets 13:26:56 0° 200° (SSW) 3,034 7.5 -22.4°
